San Angelo, TX

6:38 PM CDT on April 29, 2017 (GMT -0500)
San Angelo Regional-Mathis

Weather History for KSJT - July, 2013

Change the Weather History Date:

Tuesday, July 23, 2013

  Actual Average Record
Temperature  
Mean Temperature 86 °F 84 °F  
Max Temperature 96 °F 96 °F 108 °F (1911)
Min Temperature 76 °F 72 °F 56 °F (1915)
Degree Days  
Heating Degree Days 0 0  
Month to date heating degree days 0 0  
Since 1 June heating degree days 0 0  
Since 1 July heating degree days 0 0  
Cooling Degree Days 21 19  
Month to date cooling degree days 385 412  
Year to date cooling degree days 1542 1336  
Since 1 June cooling degree days 946 876  
Growing Degree Days 36 (Base 50)    
Moisture  
Dew Point 69 °F    
Average Humidity 61    
Maximum Humidity 82    
Minimum Humidity 39    
Precipitation  
Precipitation 0.00 in 0.03 in 1.10 in (1990)
Month to date precipitation 3.14 0.90  
Year to date precipitation 10.92 11.51  
Sea Level Pressure  
Sea Level Pressure 29.89 in    
Wind  
Wind Speed 7 mph (South)    
Max Wind Speed 17 mph    
Max Gust Speed 22 mph    
Visibility 10 miles    
Events      
T = Trace of Precipitation, MM = Missing Value Source: NWS Daily Summary

Daily Weather History Graph

Daily Weather History Graph

Search for Another Location

Airport or City:

Trip Planner

Search our weather history database for the weather conditions in past years. The results will help you decide how hot, cold, wet, or windy it might be!

Date:

Astronomy

Jul. 23, 2013 Rise Set
Actual Time 6:53 AM CDT 8:43 PM CDT
Civil Twilight 6:26 AM CDT 9:10 PM CDT
Nautical Twilight 5:53 AM CDT 9:42 PM CDT
Astronomical Twilight 5:19 AM CDT 10:17 PM CDT
Moon 9:23 PM CDT (7/23) 7:55 AM CDT (7/23)
Length of Visible Light 14h 44m
Length of Day
13h 50m
Full, 99% of the Moon is Illuminated
Jul 23
Full
Jul 29
Last Quarter
Aug 6
New
Aug 14
First Quarter
Aug 20
Full

Hourly Weather History & Observations

Time (CDT) Temp. Heat Index Dew Point Humidity Pressure Visibility Wind Dir Wind Speed Gust Speed Precip Events Conditions
12:51 AM 80.1 °F 83.2 °F 70.0 °F 71% 29.90 in 10.0 mi Calm Calm - N/A   Clear
1:51 AM 78.1 °F - 70.0 °F 76% 29.89 in 10.0 mi Calm Calm - N/A   Clear
2:51 AM 79.0 °F - 68.0 °F 69% 29.89 in 10.0 mi Calm Calm - N/A   Clear
3:51 AM 77.0 °F - 70.0 °F 79% 29.90 in 10.0 mi Calm Calm - N/A   Clear
4:51 AM 78.1 °F - 70.0 °F 76% 29.90 in 10.0 mi SSE 4.6 mph - N/A   Clear
5:51 AM 77.0 °F - 72.0 °F 84% 29.90 in 10.0 mi South 4.6 mph - N/A   Clear
6:51 AM 78.1 °F - 72.0 °F 81% 29.91 in 10.0 mi South 3.5 mph - N/A   Clear
7:51 AM 79.0 °F - 72.0 °F 79% 29.92 in 10.0 mi South 5.8 mph - N/A   Scattered Clouds
8:03 AM 78.8 °F - 73.4 °F 83% 30.00 in 10.0 mi South 5.8 mph - N/A   Mostly Cloudy
8:51 AM 81.0 °F 85.2 °F 72.0 °F 74% 29.92 in 10.0 mi South 11.5 mph 19.6 mph N/A   Mostly Cloudy
9:11 AM 82.4 °F 88.2 °F 73.4 °F 74% 30.00 in 10.0 mi South 13.8 mph - N/A   Scattered Clouds
9:51 AM 82.9 °F 88.0 °F 72.0 °F 69% 29.92 in 10.0 mi SSW 15.0 mph - N/A   Clear
10:51 AM 86.0 °F 93.0 °F 73.0 °F 65% 29.91 in 10.0 mi South 12.7 mph - N/A   Partly Cloudy
11:51 AM 88.0 °F 94.7 °F 72.0 °F 59% 29.92 in 10.0 mi South 13.8 mph 20.7 mph N/A   Partly Cloudy
12:51 PM 90.0 °F 96.9 °F 72.0 °F 55% 29.91 in 10.0 mi SSE 8.1 mph - N/A   Partly Cloudy
1:51 PM 91.0 °F 97.6 °F 71.1 °F 52% 29.89 in 10.0 mi SSW 9.2 mph 21.9 mph N/A   Scattered Clouds
2:51 PM 93.0 °F 99.0 °F 70.0 °F 47% 29.88 in 10.0 mi SSE 11.5 mph - N/A   Scattered Clouds
3:51 PM 93.9 °F 99.1 °F 69.1 °F 44% 29.86 in 10.0 mi South 12.7 mph - N/A   Partly Cloudy
4:51 PM 95.0 °F 99.5 °F 68.0 °F 41% 29.85 in 10.0 mi SSW 9.2 mph - N/A   Scattered Clouds
5:51 PM 95.0 °F 99.0 °F 66.9 °F 40% 29.83 in 10.0 mi South 11.5 mph - N/A   Clear
6:51 PM 93.9 °F 96.1 °F 64.9 °F 38% 29.83 in 10.0 mi South 11.5 mph - N/A   Clear
7:35 PM 93.2 °F 96.2 °F 66.2 °F 41% 29.91 in 10.0 mi South 8.1 mph - N/A   Partly Cloudy
7:51 PM 93.0 °F 95.0 °F 64.9 °F 39% 29.82 in 10.0 mi South 8.1 mph - N/A   Clear
8:51 PM 89.1 °F 91.0 °F 64.9 °F 45% 29.82 in 10.0 mi South 6.9 mph - N/A   Clear
9:51 PM 86.0 °F 88.2 °F 66.0 °F 51% 29.83 in 10.0 mi South 4.6 mph - N/A   Clear
10:51 PM 84.0 °F 85.8 °F 64.9 °F 53% 29.85 in 10.0 mi South 6.9 mph - N/A   Clear
11:51 PM 82.0 °F 83.1 °F 63.0 °F 52% 29.85 in 10.0 mi South 5.8 mph - N/A   Clear